Time,TemperatureF,DewpointF,PressureIn,WindDirection,WindDirectionDegrees,WindSpeedMPH,WindSpeedGustMPH,Humidity,HourlyPrecipIn,Conditions,Clouds,dailyrainin,SoftwareType,DateUTC
2013-06-22 11:02:00,74.0,71.0,30.06,NW,323,4.0,0.0,90,0.03,,,-99.99,,2013-06-22 15:02:00,
2013-06-22 11:12:00,74.0,71.0,30.06,NW,323,4.0,0.0,90,0.03,,,-99.99,,2013-06-22 15:12:00,
2013-06-22 11:34:00,75.0,71.0,30.06,ENE,75,4.0,0.0,88,0.03,,,-99.99,,2013-06-22 15:34:00,
2013-06-22 11:43:00,75.0,71.0,30.06,ENE,75,4.0,0.0,88,0.03,,,-99.99,,2013-06-22 15:43:00,
2013-06-22 11:53:00,76.0,72.0,30.07,South,180,0.0,0.0,86,0.03,,,-99.99,,2013-06-22 15:53:00,
2013-06-22 12:02:00,76.0,72.0,30.07,South,180,0.0,0.0,86,0.03,,,-99.99,,2013-06-22 16:02:00,
2013-06-22 12:12:00,77.0,71.0,30.09,WSW,240,1.0,0.0,82,0.03,,,-99.99,,2013-06-22 16:12:00,
2013-06-22 12:22:00,77.0,71.0,30.09,WSW,240,1.0,0.0,82,0.03,,,-99.99,,2013-06-22 16:22:00,
2013-06-22 12:34:00,78.0,72.0,30.09,NE,52,4.0,0.0,82,0.03,,,-99.99,,2013-06-22 16:34:00,
2013-06-22 12:43:00,78.0,72.0,30.09,NE,52,4.0,0.0,82,0.03,,,-99.99,,2013-06-22 16:43:00,
2013-06-22 12:52:00,79.0,72.0,30.11,NW,309,7.0,0.0,79,0.03,,,-99.99,,2013-06-22 16:52:00,
2013-06-22 13:02:00,79.0,72.0,30.11,WNW,290,4.0,0.0,79,0.03,,,-99.99,,2013-06-22 17:02:00,
2013-06-22 13:11:00,78.0,71.0,30.11,West,277,4.0,0.0,80,0.03,,,-99.99,,2013-06-22 17:11:00,
2013-06-22 13:22:00,78.0,72.0,30.11,WSW,255,4.0,0.0,83,0.03,,,-99.99,,2013-06-22 17:22:00,
2013-06-22 13:34:00,78.0,72.0,30.11,WSW,255,4.0,0.0,83,0.03,,,-99.99,,2013-06-22 17:34:00,
2013-06-22 13:43:00,78.0,72.0,30.11,WSW,255,4.0,0.0,83,0.03,,,-99.99,,2013-06-22 17:43:00,
2013-06-22 13:52:00,79.0,72.0,30.08,NW,326,11.0,0.0,80,0.03,,,-99.99,,2013-06-22 17:52:00,
2013-06-22 14:02:00,79.0,72.0,30.08,SSW,207,6.0,0.0,78,0.03,,,-99.99,,2013-06-22 18:02:00,
2013-06-22 14:12:00,79.0,72.0,30.08,SSW,207,6.0,0.0,78,0.03,,,-99.99,,2013-06-22 18:12:00,
2013-06-22 14:23:00,80.0,71.0,30.06,SSW,195,7.0,0.0,75,0.03,,,-99.99,,2013-06-22 18:23:00,
2013-06-22 14:34:00,80.0,71.0,30.05,South,191,7.0,0.0,74,0.03,,,-99.99,,2013-06-22 18:34:00,
2013-06-22 14:43:00,80.0,71.0,30.05,South,191,7.0,0.0,74,0.03,,,-99.99,,2013-06-22 18:43:00,
2013-06-22 14:52:00,80.0,71.0,30.05,South,191,7.0,0.0,74,0.03,,,-99.99,,2013-06-22 18:52:00,
2013-06-22 15:01:00,79.0,71.0,30.03,SSW,194,10.0,0.0,77,0.03,,,-99.99,,2013-06-22 19:01:00,
2013-06-22 15:11:00,80.0,69.0,30.03,South,187,10.0,0.0,70,0.03,,,-99.99,,2013-06-22 19:11:00,
2013-06-22 15:22:00,80.0,69.0,30.03,South,187,10.0,0.0,70,0.03,,,-99.99,,2013-06-22 19:22:00,
2013-06-22 15:33:00,80.0,69.0,30.03,South,187,10.0,0.0,70,0.03,,,-99.99,,2013-06-22 19:33:00,
2013-06-22 15:43:00,80.0,69.0,30.03,South,187,10.0,0.0,70,0.03,,,-99.99,,2013-06-22 19:43:00,
2013-06-22 16:02:00,81.0,66.0,30.01,SSE,160,12.0,0.0,60,0.03,,,-99.99,,2013-06-22 20:02:00,
2013-06-22 16:11:00,81.0,66.0,30.01,SSE,160,12.0,0.0,60,0.03,,,-99.99,,2013-06-22 20:11:00,
2013-06-22 16:22:00,81.0,64.0,30.00,South,191,10.0,0.0,57,0.03,,,-99.99,,2013-06-22 20:22:00,
2013-06-22 16:33:00,82.0,67.0,29.99,SSW,204,10.0,0.0,61,0.03,,,-99.99,,2013-06-22 20:33:00,
2013-06-22 16:43:00,82.0,67.0,29.99,South,190,11.0,0.0,60,0.03,,,-99.99,,2013-06-22 20:43:00,
2013-06-22 16:53:00,82.0,66.0,29.99,SSE,167,11.0,0.0,58,0.03,,,-99.99,,2013-06-22 20:53:00,
2013-06-22 17:01:00,82.0,66.0,29.98,South,181,12.0,0.0,59,0.03,,,-99.99,,2013-06-22 21:01:00,
2013-06-22 17:11:00,82.0,66.0,29.98,South,181,12.0,0.0,59,0.03,,,-99.99,,2013-06-22 21:11:00,
2013-06-22 17:22:00,84.0,68.0,29.98,South,177,9.0,0.0,59,0.03,,,-99.99,,2013-06-22 21:22:00,
2013-06-22 17:34:00,85.0,68.0,30.00,SW,218,7.0,0.0,57,0.03,,,-99.99,,2013-06-22 21:34:00,
2013-06-22 17:43:00,85.0,67.0,29.99,South,191,4.0,0.0,55,0.03,,,-99.99,,2013-06-22 21:43:00,
2013-06-22 17:53:00,86.0,66.0,29.99,North,3,2.0,0.0,52,0.03,,,-99.99,,2013-06-22 21:53:00,
2013-06-22 18:02:00,86.0,65.0,29.99,West,277,4.0,0.0,50,0.03,,,-99.99,,2013-06-22 22:02:00,
2013-06-22 18:12:00,86.0,65.0,30.00,WSW,250,4.0,0.0,49,0.03,,,-99.99,,2013-06-22 22:12:00,
2013-06-22 18:23:00,86.0,65.0,30.01,NNW,335,7.0,0.0,50,0.03,,,-99.99,,2013-06-22 22:23:00,
2013-06-22 18:33:00,86.0,65.0,30.01,North,11,4.0,0.0,50,0.03,,,-99.99,,2013-06-22 22:33:00,
2013-06-22 18:43:00,86.0,65.0,30.01,North,11,4.0,0.0,50,0.03,,,-99.99,,2013-06-22 22:43:00,
2013-06-22 18:52:00,85.0,64.0,30.01,WSW,256,3.0,0.0,50,0.03,,,-99.99,,2013-06-22 22:52:00,
2013-06-22 19:01:00,85.0,64.0,30.01,West,264,5.0,0.0,50,0.03,,,-99.99,,2013-06-22 23:01:00,
2013-06-22 19:11:00,85.0,64.0,30.01,West,264,5.0,0.0,50,0.03,,,-99.99,,2013-06-22 23:11:00,
2013-06-22 19:22:00,84.0,65.0,30.02,NW,322,3.0,0.0,53,0.03,,,-99.99,,2013-06-22 23:22:00,
2013-06-22 19:34:00,84.0,65.0,30.02,NW,322,3.0,0.0,53,0.03,,,-99.99,,2013-06-22 23:34:00,
2013-06-22 19:43:00,82.0,66.0,30.02,NNW,340,5.0,0.0,59,0.03,,,-99.99,,2013-06-22 23:43:00,
2013-06-22 19:53:00,82.0,66.0,30.01,NNW,336,5.0,0.0,59,0.03,,,-99.99,,2013-06-22 23:53:00,
2013-06-22 20:01:00,82.0,69.0,30.01,NNW,345,4.0,0.0,64,0.03,,,-99.99,,2013-06-23 00:01:00,
2013-06-22 20:11:00,81.0,68.0,30.02,NNW,340,5.0,0.0,65,0.03,,,-99.99,,2013-06-23 00:11:00,
2013-06-22 20:22:00,81.0,68.0,30.02,NNW,340,5.0,0.0,65,0.03,,,-99.99,,2013-06-23 00:22:00,
2013-06-22 20:33:00,81.0,68.0,30.02,North,353,6.0,0.0,65,0.03,,,-99.99,,2013-06-23 00:33:00,
2013-06-22 20:42:00,81.0,68.0,30.02,North,353,6.0,0.0,65,0.03,,,-99.99,,2013-06-23 00:42:00,
2013-06-22 20:53:00,81.0,68.0,30.02,North,353,6.0,0.0,65,0.03,,,-99.99,,2013-06-23 00:53:00,
2013-06-22 21:01:00,80.0,67.0,30.02,NW,323,2.0,0.0,64,0.03,,,-99.99,,2013-06-23 01:01:00,
2013-06-22 21:11:00,79.0,70.0,30.02,NNW,330,2.0,0.0,73,0.03,,,-99.99,,2013-06-23 01:11:00,
2013-06-22 21:22:00,79.0,70.0,30.02,NNW,330,2.0,0.0,73,0.03,,,-99.99,,2013-06-23 01:22:00,
2013-06-22 21:32:00,79.0,70.0,30.02,NNW,330,2.0,0.0,73,0.03,,,-99.99,,2013-06-23 01:32:00,
2013-06-22 21:42:00,79.0,70.0,30.02,NNW,330,2.0,0.0,73,0.03,,,-99.99,,2013-06-23 01:42:00,
2013-06-22 21:52:00,79.0,70.0,30.02,NNW,330,2.0,0.0,73,0.03,,,-99.99,,2013-06-23 01:52:00,
2013-06-22 23:11:00,77.0,71.0,30.01,NW,323,0.0,0.0,81,0.03,,,-99.99,,2013-06-23 03:11:00,
2013-06-22 23:21:00,77.0,71.0,30.01,NW,323,0.0,0.0,81,0.03,,,-99.99,,2013-06-23 03:21:00,
2013-06-22 23:31:00,77.0,71.0,30.01,NW,323,0.0,0.0,81,0.03,,,-99.99,,2013-06-23 03:31:00,
2013-06-22 23:41:00,77.0,70.0,30.01,NW,323,0.0,0.0,80,0.03,,,-99.99,,2013-06-23 03:41:00,
2013-06-22 23:51:00,77.0,70.0,30.01,NW,323,0.0,0.0,80,0.03,,,-99.99,,2013-06-23 03:51:00,